Regional Weather Roundup
Issued by NWS Little Rock, AR

Home | Current Version | Previous Version | Graphics & Text | Print | Product List | Glossary On
Versions: 1 2 3 4 5 6 7 8 9 10 11 12 13 14 15 16 17 18 19 20 21 22 23 24 25 26 27
000
ASUS44 KLZK 170605
RWRLZK

WEATHER ROUNDUP FOR ARKANSAS
NATIONAL WEATHER SERVICE LITTLE ROCK AR
100 AM CDT THU APR 17 2014

NOTE: "FAIR" INDICATES FEW OR NO CLOUDS BELOW 12,000 FEET WITH NO
SIGNIFICANT WEATHER AND/OR OBSTRUCTIONS TO VISIBILITY.

ARZ001-003-010-029-170700-
NORTHWEST ARKANSAS

CITY           SKY/WX    TMP DP  RH WIND       PRES   REMARKS
FAYETTEVILLE   FAIR      37  35  92 CALM      30.12S
6HR MIN TEMP:  37; 6HR MAX TEMP:  58;

FORT SMITH     FAIR      45  37  73 E6        30.13S
6HR MIN TEMP:  45; 6HR MAX TEMP:  64;

HARRISON       FAIR      40  30  67 SE5       30.14R
6HR MIN TEMP:  40; 6HR MAX TEMP:  57;

BENTONVILLE    FAIR      45  30  57 S8        30.11R
6HR MIN TEMP:  43; 6HR MAX TEMP:  61;

ROGERS         FAIR      47  32  56 SE12      30.11S
6HR MIN TEMP:  47; 6HR MAX TEMP:  59;

SILOAM SPGS    FAIR      46  28  49 S7        30.11S
6HR MIN TEMP:  46; 6HR MAX TEMP:  59;

HIGHFILL       FAIR      44  32  62 S6        30.10S
6HR MIN TEMP:  43; 6HR MAX TEMP:  59;

$$

ARZ004-005-016-170700-
NORTH CENTRAL ARKANSAS

CITY           SKY/WX    TMP DP  RH WIND       PRES   REMARKS
BATESVILLE     FAIR      46  34  61 S3        30.17R
6HR MIN TEMP:  46; 6HR MAX TEMP:  57;

FLIPPIN        FAIR      39  27  60 CALM      30.16R
6HR MIN TEMP:  39; 6HR MAX TEMP:  57;

MTN HOME       FAIR      44  29  55 SE3       30.15R
6HR MIN TEMP:  43; 6HR MAX TEMP:  57;

$$

ARZ040-041-170700-
WEST CENTRAL ARKANSAS

CITY           SKY/WX    TMP DP  RH WIND       PRES   REMARKS
MENA           FAIR      39  36  87 CALM      30.14R
MOUNT IDA      FAIR      40  37  89 CALM      30.12R
6HR MIN TEMP:  40; 6HR MAX TEMP:  60;

$$

ARZ009-017-025-026-028-170700-
NORTHEAST ARKANSAS

CITY           SKY/WX    TMP DP  RH WIND       PRES   REMARKS
CORNING        FAIR      45  37  76 NW3       30.19R
JONESBORO      FAIR      40  36  86 CALM      30.18R
6HR MIN TEMP:  40; 6HR MAX TEMP:  55;

NEWPORT        FAIR      44  37  76 S7        30.19R
6HR MIN TEMP:  44; 6HR MAX TEMP:  56;

WALNUT RIDGE   FAIR      45  36  70 CALM      30.18R
6HR MIN TEMP:  43; 6HR MAX TEMP:  55;

BLYTHEVILLE    FAIR      47  37  68 S5        30.19R
6HR MIN TEMP:  46; 6HR MAX TEMP:  58;

$$

ARZ022-023-033-042-044-170700-
CENTRAL ARKANSAS

CITY           SKY/WX    TMP DP  RH WIND       PRES   REMARKS
LITTLE ROCK    FAIR      48  37  65 S5        30.17R
6HR MIN TEMP:  47; 6HR MAX TEMP:  57;

N LITTLE ROCK    N/A     47  40  76 E2        30.17R
6HR MIN TEMP:  47; 6HR MAX TEMP:  57;

JACKSONVILLE   FAIR      40  38  89 CALM      30.17R
6HR MIN TEMP:  40; 6HR MAX TEMP:  58;

SEARCY         FAIR      39  37  92 CALM      30.19R
6HR MIN TEMP:  39; 6HR MAX TEMP:  56;

HOT SPRINGS    FAIR      46  35  65 E8        30.16R
6HR MIN TEMP:  45; 6HR MAX TEMP:  62;

RUSSELLVILLE   FAIR      43  37  79 CALM      30.16R
6HR MIN TEMP:  43; 6HR MAX TEMP:  59;

CLINTON        FAIR      37  36  93 CALM      30.18R
$$

ARZ036-170700-
EAST ARKANSAS

CITY           SKY/WX    TMP DP  RH WIND       PRES   REMARKS
WEST MEMPHIS   FAIR      46  41  82 S3        30.19R
6HR MIN TEMP:  45; 6HR MAX TEMP:  58;

$$

ARZ050-053-066-070-073-170700-
SOUTHWEST ARKANSAS

CITY           SKY/WX    TMP DP  RH WIND       PRES   REMARKS
ARKADELPHIA    FAIR      45  43  93 CALM      30.16R
6HR MIN TEMP:  45; 6HR MAX TEMP:  60;

CAMDEN         FAIR      41  37  87 MISG      30.16R
TEXARKANA      FAIR      45  37  73 E3        30.13R
6HR MIN TEMP:  42; 6HR MAX TEMP:  61;

EL DORADO      FAIR      43  38  82 CALM      30.16R
6HR MIN TEMP:  42; 6HR MAX TEMP:  60;

DE QUEEN       FAIR      40  39  97 NE3       30.12R
6HR MIN TEMP:  40; 6HR MAX TEMP:  61;

$$

ARZ056-057-069-170700-
SOUTHEAST ARKANSAS

CITY           SKY/WX    TMP DP  RH WIND       PRES   REMARKS
PINE BLUFF     FAIR      45  40  82 CALM      30.17R
6HR MIN TEMP:  44; 6HR MAX TEMP:  57;

STUTTGART      FAIR      48  37  66 SE7       30.18S
6HR MIN TEMP:  48; 6HR MAX TEMP:  57;

MONTICELLO     FAIR      43  38  82 CALM      30.17R
6HR MIN TEMP:  41; 6HR MAX TEMP:  58;


$$





USA.gov is the U.S. government's official web portal to all federal, state and local government web resources and services.